Date,TemperatureHighF,TemperatureAvgF,TemperatureLowF,DewpointHighF,DewpointAvgF,DewpointLowF,HumidityHigh,HumidityAvg,HumidityLow,PressureMaxIn,PressureMinIn,WindSpeedMaxMPH,WindSpeedAvgMPH,GustSpeedMaxMPH,PrecipitationSumIn
2013-1-1,24.1,20.4,19.6,18.9,7.0,-99.9,85,71,69,30.19,30.07,14,-73,18,0.00
2013-1-2,26.2,23.0,22.7,21.8,10.6,-99.9,88,75,74,30.17,30.06,13,-71,14,0.00
2013-1-3,30.3,25.1,24.6,25.9,10.6,-99.9,90,75,76,30.11,30.01,15,-100,16,0.00
2013-1-4,36.2,21.8,25.7,30.9,-8.4,-99.9,89,62,75,30.14,29.94,18,-258,27,0.00
2013-1-5,36.3,30.6,23.8,32.8,22.2,-99.9,88,78,72,30.24,29.89,14,-27,18,0.00
2013-1-6,35.6,29.5,28.7,31.2,18.0,-99.9,89,75,73,30.29,29.84,15,-61,16,0.00
2013-1-7,39.4,32.4,27.3,32.5,21.7,-99.9,82,73,67,30.30,29.95,19,-34,22,0.00
2013-1-8,40.7,35.2,33.8,34.4,27.0,-99.9,92,79,74,30.18,30.00,13,-30,14,0.00
2013-1-9,39.5,35.6,34.4,34.5,24.2,-99.9,85,73,70,30.44,29.85,26,-38,28,0.00
2013-1-10,42.1,34.7,27.5,30.5,23.6,-99.9,91,70,55,30.58,30.12,13,-29,15,0.00
2013-1-11,44.3,36.7,34.7,43.6,27.4,-99.9,98,87,64,30.11,29.68,4,-78,9,0.21
2013-1-12,49.6,39.9,34.5,46.9,28.5,-99.9,97,78,70,29.96,29.63,17,-66,22,0.00
2013-1-13,34.4,29.6,27.3,31.1,21.3,-99.9,94,83,81,30.01,29.85,16,-48,22,0.00
2013-1-14,27.4,18.6,22.7,23.4,-8.3,-99.9,93,65,77,30.35,30.01,20,-230,24,0.00
2013-1-15,26.6,20.9,20.6,19.1,5.6,-99.9,79,67,70,30.40,30.29,11,-82,12,0.00
2013-1-16,32.1,27.6,25.1,29.4,18.6,-99.9,96,80,68,30.00,29.67,19,-36,22,0.00
2013-1-17,24.8,16.1,14.4,17.1,1.4,-99.9,87,70,68,30.28,30.01,16,-87,21,0.00
2013-1-18,29.6,19.2,16.8,26.9,7.5,-99.9,93,76,70,30.37,29.88,11,-68,13,0.00
2013-1-19,38.3,29.8,28.7,35.6,15.0,-99.9,96,80,75,29.83,29.44,27,-123,31,0.13
2013-1-20,27.8,15.5,12.5,26.0,3.5,-99.9,93,74,69,30.18,29.52,29,-60,36,0.00
2013-1-21,14.1,8.8,3.3,11.6,-1.8,-99.9,91,80,81,30.12,29.99,18,-65,27,0.00
2013-1-22,9.9,6.4,4.0,5.1,1.8,-99.9,92,83,79,30.27,30.16,16,3,27,0.00
2013-1-23,13.6,11.0,10.6,10.4,0.6,-99.9,90,78,76,30.21,30.07,13,-58,27,0.00
2013-1-24,12.8,6.1,-1.5,6.1,-5.1,-99.9,87,75,71,30.67,30.50,2,-67,27,0.00
2013-1-25,16.2,12.7,10.7,13.5,8.6,4.7,90,84,72,30.50,30.12,4,2,27,0.00
2013-1-26,23.6,20.2,16.6,19.5,16.9,13.9,91,87,81,30.41,30.15,6,0,27,0.05
2013-1-27,30.7,26.8,23.6,27.0,23.2,19.3,94,86,70,30.41,30.06,3,1,27,0.00
2013-1-28,32.6,29.3,27.6,31.8,24.2,-99.9,97,92,94,30.06,29.83,3,-39,9,0.05
2013-1-29,49.2,33.9,30.1,48.7,28.0,-99.9,98,91,92,30.00,29.46,9,-48,10,0.53
2013-1-30,35.2,28.6,20.6,34.7,21.7,-99.9,98,90,92,29.49,29.13,5,-59,9,0.17
2013-1-31,21.0,18.2,16.2,19.0,12.4,-99.9,93,84,78,29.89,29.27,20,-17,21,0.00